Weather History for Camdenton, MO

Change the Weather History Date:

Saturday, July 6, 2013

  Actual Average (KAIZ) Record (KAIZ)
Temperature  
Mean Temperature 76 °F -  
Max Temperature 89 °F 84 °F 105 °F (2012)
Min Temperature 62 °F 65 °F 55 °F (2006)
Cooling Degree Days 10    
Growing Degree Days 26 (Base 50)    
Moisture  
Dew Point 61 °F    
Average Humidity 66    
Maximum Humidity 94    
Minimum Humidity 31    
Precipitation  
Precipitation 0.00 in - - ()
Sea Level Pressure  
Sea Level Pressure 30.02 in    
Wind  
Wind Speed 7 mph (SSE)    
Max Wind Speed 9 mph    
Max Gust Speed -    
Visibility 10 miles    
Events      
Averages and records for this station are not official NWS values.
T = Trace of Precipitation, MM = Missing Value Source: NWS Daily Summary

Daily Weather History Graph

Daily Weather History Graph

Search for Another Location

Airport:

Trip Planner

Search our weather history database for the weather conditions in past years. The results will help you decide how hot, cold, wet, or windy it might be!

Date:

Astronomy

Jul. 06, 2013 Rise Set
Actual Time 5:54 AM CDT 8:36 PM CDT
Civil Twilight 5:23 AM CDT 9:07 PM CDT
Nautical Twilight 4:44 AM CDT 9:46 PM CDT
Astronomical Twilight 4:01 AM CDT 10:29 PM CDT
Moon 4:40 AM CDT (7/6) 7:19 PM CDT (7/6)
Length of Visible Light 15h 43m
Length of Day
14h 41m
Waning Crescent, 2% of the Moon is Illuminated
Jul 6
Waning Crescent
Jul 8
New
Jul 15
First Quarter
Jul 22
Full
Jul 29
Last Quarter

Hourly Weather History & Observations

Time (CDT) Temp. Heat Index Dew Point Humidity Pressure Visibility Wind Dir Wind Speed Gust Speed Precip Events Conditions
12:15 AM 66.2 °F - 59.0 °F 78% 30.03 in 10.0 mi East 8.1 mph - N/A   Clear
12:35 AM 68.0 °F - 60.8 °F 78% 30.03 in 10.0 mi ESE 6.9 mph - N/A   Clear
12:55 AM 64.4 °F - 60.8 °F 88% 30.03 in 10.0 mi ESE 5.8 mph - N/A   Clear
1:15 AM 64.4 °F - 60.8 °F 88% 30.03 in 10.0 mi ESE 4.6 mph - N/A   Clear
1:35 AM 64.4 °F - 60.8 °F 88% 30.03 in 10.0 mi SE 4.6 mph - N/A   Clear
1:55 AM 64.4 °F - 60.8 °F 88% 30.03 in 10.0 mi SE 5.8 mph - N/A   Clear
2:15 AM 66.2 °F - 62.6 °F 88% 30.03 in 10.0 mi SE 9.2 mph - N/A   Clear
2:35 AM 66.2 °F - 62.6 °F 88% 30.03 in 10.0 mi SE 8.1 mph - N/A   Clear
2:55 AM 66.2 °F - 62.6 °F 88% 30.03 in 10.0 mi SE 8.1 mph - N/A   Clear
3:15 AM 64.4 °F - 62.6 °F 94% 30.02 in 10.0 mi ESE 6.9 mph - N/A   Clear
3:35 AM 64.4 °F - 62.6 °F 94% 30.02 in 10.0 mi SE 6.9 mph - N/A   Clear
3:55 AM 64.4 °F - 62.6 °F 94% 30.02 in 10.0 mi SE 8.1 mph - N/A   Clear
4:15 AM 64.4 °F - 62.6 °F 94% 30.02 in 10.0 mi SE 8.1 mph - N/A   Clear
4:35 AM 64.4 °F - 62.6 °F 94% 30.01 in 10.0 mi SE 8.1 mph - N/A   Clear
4:55 AM 64.4 °F - 60.8 °F 88% 30.02 in 10.0 mi SE 6.9 mph - N/A   Clear
5:15 AM 64.4 °F - 60.8 °F 88% 30.02 in 10.0 mi SE 8.1 mph - N/A   Clear
5:35 AM 64.4 °F - 60.8 °F 88% 30.02 in 10.0 mi SE 6.9 mph - N/A   Clear
5:55 AM 62.6 °F - 60.8 °F 94% 30.03 in 10.0 mi ESE 6.9 mph - N/A   Clear
6:15 AM 64.4 °F - 60.8 °F 88% 30.03 in 10.0 mi SE 6.9 mph - N/A   Clear
6:35 AM 64.4 °F - 60.8 °F 88% 30.03 in 10.0 mi SE 9.2 mph - N/A   Clear
6:55 AM 64.4 °F - 62.6 °F 94% 30.03 in 10.0 mi SE 8.1 mph - N/A   Clear
7:15 AM 68.0 °F - 62.6 °F 83% 30.03 in 10.0 mi SE 6.9 mph - N/A   Clear
7:35 AM 68.0 °F - 62.6 °F 83% 30.04 in 10.0 mi SE 5.8 mph - N/A   Clear
7:55 AM 69.8 °F - 64.4 °F 83% 30.04 in 10.0 mi SSE 5.8 mph - N/A   Clear
8:15 AM 71.6 °F - 64.4 °F 78% 30.05 in 10.0 mi SE 5.8 mph - N/A   Clear
8:35 AM 73.4 °F - 64.4 °F 73% 30.05 in 10.0 mi South 4.6 mph - N/A   Clear
8:55 AM 73.4 °F - 64.4 °F 73% 30.05 in 10.0 mi South 6.9 mph - N/A   Clear
9:15 AM 77.0 °F - 64.4 °F 65% 30.05 in 10.0 mi South 5.8 mph - N/A   Clear
9:35 AM 78.8 °F - 62.6 °F 57% 30.05 in 10.0 mi South 8.1 mph - N/A   Clear
9:55 AM 78.8 °F - 62.6 °F 57% 30.05 in 10.0 mi South 4.6 mph - N/A   Clear
10:15 AM 80.6 °F 81.8 °F 62.6 °F 54% 30.05 in 10.0 mi South 4.6 mph - N/A   Clear
10:35 AM 80.6 °F 81.5 °F 60.8 °F 51% 30.05 in 10.0 mi SSW 5.8 mph - N/A   Clear
10:55 AM 82.4 °F 82.9 °F 60.8 °F 48% 30.05 in 10.0 mi South 6.9 mph - N/A   Clear
11:15 AM 82.4 °F 82.9 °F 60.8 °F 48% 30.05 in 10.0 mi South 5.8 mph - N/A   Clear
11:35 AM 82.4 °F 82.9 °F 60.8 °F 48% 30.05 in 10.0 mi SW 3.5 mph - N/A   Clear
11:55 AM 82.4 °F 83.4 °F 62.6 °F 51% 30.04 in 10.0 mi SSW 5.8 mph - N/A   Clear
12:15 PM 84.2 °F 84.4 °F 60.8 °F 45% 30.04 in 10.0 mi SW 4.6 mph - N/A   Clear
12:35 PM 86.0 °F 86.1 °F 60.8 °F 43% 30.04 in 10.0 mi SW 4.6 mph - N/A   Clear
12:55 PM 86.0 °F 86.1 °F 60.8 °F 43% 30.03 in 10.0 mi SSW 6.9 mph - N/A   Clear
1:15 PM 86.0 °F 86.1 °F 60.8 °F 43% 30.02 in 10.0 mi WSW 5.8 mph - N/A   Clear
1:35 PM 86.0 °F 85.4 °F 59.0 °F 40% 30.02 in 10.0 mi SW 5.8 mph - N/A   Clear
1:55 PM 87.8 °F 87.1 °F 59.0 °F 38% 30.01 in 10.0 mi South 4.6 mph - N/A   Scattered Clouds
2:15 PM 86.0 °F 84.9 °F 57.2 °F 37% 30.00 in 10.0 mi SSW 3.5 mph - N/A   Scattered Clouds
2:35 PM 86.0 °F 85.4 °F 59.0 °F 40% 30.00 in 10.0 mi SSW 3.5 mph - N/A   Scattered Clouds
2:55 PM 87.8 °F 85.7 °F 53.6 °F 31% 29.99 in 10.0 mi SE 9.2 mph - N/A   Scattered Clouds
3:15 PM 87.8 °F 86.1 °F 55.4 °F 33% 29.99 in 10.0 mi SW 8.1 mph - N/A   Clear
3:35 PM 87.8 °F 85.7 °F 53.6 °F 31% 29.99 in 10.0 mi South 5.8 mph - N/A   Clear
3:55 PM 89.6 °F 87.7 °F 55.4 °F 31% 29.98 in 10.0 mi SE 6.9 mph - N/A   Clear
4:15 PM 87.8 °F 85.7 °F 53.6 °F 31% 29.97 in 10.0 mi SSE 3.5 mph - N/A   Clear
4:35 PM 89.6 °F 87.7 °F 55.4 °F 31% 29.97 in 10.0 mi SW 6.9 mph - N/A   Clear
4:55 PM 87.8 °F 85.7 °F 53.6 °F 31% 29.97 in 10.0 mi SSW 6.9 mph - N/A   Clear
5:15 PM 87.8 °F 86.1 °F 55.4 °F 33% 29.97 in 10.0 mi SSW 6.9 mph - N/A   Clear
5:35 PM 86.0 °F 84.5 °F 55.4 °F 35% 29.97 in 10.0 mi South 3.5 mph - N/A   Mostly Cloudy
5:55 PM 86.0 °F 85.4 °F 59.0 °F 40% 29.97 in 10.0 mi SSE 3.5 mph - N/A   Overcast
6:15 PM 84.2 °F 83.8 °F 59.0 °F 42% 29.97 in 10.0 mi South 3.5 mph - N/A   Overcast
6:35 PM 80.6 °F 81.8 °F 62.6 °F 54% 29.98 in 10.0 mi East 8.1 mph - N/A   Overcast
6:55 PM 78.8 °F - 62.6 °F 57% 29.98 in 10.0 mi East 8.1 mph - N/A   Mostly Cloudy
7:15 PM 77.0 °F - 62.6 °F 61% 29.99 in 10.0 mi East 4.6 mph - N/A   Scattered Clouds
7:35 PM 75.2 °F - 62.6 °F 65% 29.99 in 10.0 mi East 5.8 mph - N/A   Scattered Clouds
7:55 PM 75.2 °F - 62.6 °F 65% 29.99 in 10.0 mi ESE 5.8 mph - N/A   Clear
8:15 PM 73.4 °F - 62.6 °F 69% 29.99 in 10.0 mi East 4.6 mph - N/A   Clear
8:35 PM 73.4 °F - 62.6 °F 69% 29.99 in 10.0 mi ESE 5.8 mph - N/A   Clear
8:55 PM 73.4 °F - 62.6 °F 69% 29.99 in 10.0 mi ESE 5.8 mph - N/A   Clear
9:15 PM 71.6 °F - 62.6 °F 73% 29.99 in 10.0 mi ESE 6.9 mph - N/A   Clear
9:35 PM 73.4 °F - 62.6 °F 69% 30.00 in 10.0 mi ESE 6.9 mph - N/A   Clear
9:55 PM 71.6 °F - 64.4 °F 78% 30.01 in 10.0 mi ESE 6.9 mph - N/A   Clear
10:15 PM 71.6 °F - 64.4 °F 78% 30.01 in 10.0 mi ESE 8.1 mph - N/A   Clear
10:35 PM 71.6 °F - 64.4 °F 78% 30.02 in 10.0 mi SE 6.9 mph - N/A   Clear
10:55 PM 71.6 °F - 64.4 °F 78% 30.02 in 10.0 mi ESE 5.8 mph - N/A   Clear
11:15 PM 71.6 °F - 64.4 °F 78% 30.02 in 10.0 mi SE 8.1 mph - N/A   Clear
11:35 PM 71.6 °F - 64.4 °F 78% 30.02 in 10.0 mi SE 8.1 mph - N/A   Clear
11:55 PM 71.6 °F - 64.4 °F 78% 30.02 in 10.0 mi SE 6.9 mph - N/A   Clear